This is the latest recevied weather packets stored in our database for station/object OE-11307. If no packets are shown the sender has not sent any weather packets the latest 10 day(s).
| Time | Temp. | Humidity | Pressure | Rain* | Wind** | Luminosity | Snow |
|---|---|---|---|---|---|---|---|
| 1788018087 | 18.89° C | 60% | 852.6 hPa | 0 mm | - | 391 W/m² | - |
| 1788017714 | 18.89° C | 59% | 852.6 hPa | 0 mm | - | 403 W/m² | - |
| 1788017114 | 18.89° C | 59% | 852.6 hPa | 0 mm | - | 441 W/m² | - |
| 1788016287 | 18.89° C | 62% | 852.6 hPa | 0 mm | - | 365 W/m² | - |
| 1788015914 | 18.33° C | 60% | 852.6 hPa | 0 mm | - | 258 W/m² | - |
| 1788015314 | 18.89° C | 60% | 852.5 hPa | 0 mm | - | 466 W/m² | - |
| 1788014487 | 18.89° C | 61% | 852.5 hPa | 0 mm | - | 372 W/m² | - |
| 1788014114 | 18.33° C | 60% | 852.4 hPa | 0 mm | - | 365 W/m² | - |
| 1788013513 | 19.44° C | 58% | 852.5 hPa | 0 mm | - | 523 W/m² | - |
| 1788012687 | 18.89° C | 61% | 852.5 hPa | 0 mm | - | 573 W/m² | - |
| 1788012314 | 18.89° C | 61% | 852.5 hPa | 0 mm | - | 410 W/m² | - |
| 1788011714 | 19.44° C | 60% | 852.4 hPa | 0 mm | - | 561 W/m² | - |
| 1788010887 | 19.44° C | 58% | 852.5 hPa | 0 mm | - | 649 W/m² | - |
| 1788010514 | 19.44° C | 58% | 852.6 hPa | 0 mm | - | 693 W/m² | - |
| 1788009913 | 19.44° C | 60% | 852.6 hPa | 0 mm | - | 737 W/m² | - |
| 1788009087 | 18.33° C | 58% | 852.5 hPa | 0 mm | - | 756 W/m² | - |
| 1788008714 | 18.89° C | 62% | 852.6 hPa | 0 mm | - | 781 W/m² | - |
| 1788008114 | 18.89° C | 60% | 852.7 hPa | 0 mm | - | 756 W/m² | - |
| 1788007287 | 18.89° C | 60% | 852.7 hPa | 0 mm | - | 794 W/m² | - |
| 1788006914 | 18.33° C | 58% | 852.7 hPa | 0 mm | - | 813 W/m² | - |
| 1788006314 | 18.33° C | 61% | 852.8 hPa | 0 mm | - | 807 W/m² | - |
| 1788005486 | 18.33° C | 60% | 852.8 hPa | 0 mm | - | 819 W/m² | - |
| 1788005114 | 18.33° C | 64% | 852.9 hPa | 0 mm | - | 825 W/m² | - |
| 1788004514 | 18.33° C | 64% | 853 hPa | 0 mm | - | 832 W/m² | - |
| 1788003687 | 18.33° C | 64% | 853 hPa | 0 mm | - | 832 W/m² | - |
* Rain latest hour (hover to see other rain measurements)
** Current wind speed in m/s (hover to see current wind gust speed)